Wetterdaten: Samstag, 05.12.2015
Datum Zeit Auen-Temp. Temp gefhlt Luftfeuchte Luftdruck Regen Wind Richtung Richtung Taupunkt Windben
05.12.2015 00:01 4,8 C 4,7 C 90 % 1034,8 hPa 0,0 mm 0,0 km/h (0 Bft) NO 45 3,3 C 0,0 km/h (0 Bft)
05.12.2015 00:06 4,6 C 4,6 C 90 % 1034,8 hPa 0,0 mm 0,0 km/h (0 Bft) N-NO 22 3,1 C 0,0 km/h (0 Bft)
05.12.2015 00:11 4,7 C 4,6 C 90 % 1034,5 hPa 0,0 mm 0,0 km/h (0 Bft) N-NO 22 3,2 C 0,0 km/h (0 Bft)
05.12.2015 00:16 4,6 C 4,5 C 90 % 1034,5 hPa 0,0 mm 0,0 km/h (0 Bft) N-NW 337 3,1 C 0,0 km/h (0 Bft)
05.12.2015 00:21 4,6 C 4,6 C 90 % 1034,5 hPa 0,0 mm 0,0 km/h (0 Bft) N-NO 22 3,1 C 0,0 km/h (0 Bft)
05.12.2015 00:26 4,6 C 4,5 C 90 % 1034,5 hPa 0,0 mm 0,0 km/h (0 Bft) NO 45 3,1 C 0,0 km/h (0 Bft)
05.12.2015 00:31 4,7 C 4,6 C 90 % 1034,7 hPa 0,0 mm 0,0 km/h (0 Bft) NO 45 3,2 C 0,0 km/h (0 Bft)
05.12.2015 00:36 4,6 C 4,5 C 90 % 1034,7 hPa 0,0 mm 0,0 km/h (0 Bft) NO 45 3,1 C 0,0 km/h (0 Bft)
05.12.2015 00:41 4,4 C 4,4 C 90 % 1034,7 hPa 0,0 mm 0,0 km/h (0 Bft) NO 45 2,9 C 0,0 km/h (0 Bft)
05.12.2015 00:46 4,6 C 4,5 C 85 % 1034,7 hPa 0,0 mm 0,0 km/h (0 Bft) NO 45 2,3 C 0,0 km/h (0 Bft)
05.12.2015 00:51 4,6 C 4,5 C 90 % 1034,4 hPa 0,0 mm 0,0 km/h (0 Bft) NO 45 3,1 C 0,0 km/h (0 Bft)
05.12.2015 00:56 4,5 C 4,4 C 90 % 1034,4 hPa 0,0 mm 0,0 km/h (0 Bft) NO 45 3,0 C 0,0 km/h (0 Bft)
05.12.2015 01:01 4,6 C 4,5 C 91 % 1034,4 hPa 0,0 mm 0,0 km/h (0 Bft) S-SO 157 3,3 C 0,0 km/h (0 Bft)
05.12.2015 01:06 4,4 C 4,3 C 91 % 1034,4 hPa 0,0 mm 0,0 km/h (0 Bft) S-SO 157 3,1 C 0,0 km/h (0 Bft)
05.12.2015 01:11 4,4 C 4,3 C 90 % 1034,5 hPa 0,0 mm 0,0 km/h (0 Bft) S 180 2,9 C 0,0 km/h (0 Bft)
05.12.2015 01:13 4,4 C 4,3 C 90 % 1034,5 hPa 0,0 mm 0,0 km/h (0 Bft) S 180 2,9 C 0,0 km/h (0 Bft)
05.12.2015 01:15 4,4 C 4,3 C 90 % 1034,5 hPa 0,0 mm 0,0 km/h (0 Bft) S 180 2,9 C 0,0 km/h (0 Bft)
05.12.2015 01:20 4,5 C 4,4 C 91 % 1034,5 hPa 0,0 mm 0,0 km/h (0 Bft) S-SO 157 3,2 C 2,8 km/h (1 Bft)
05.12.2015 01:25 4,4 C 4,3 C 91 % 1034,5 hPa 0,0 mm 0,8 km/h (0 Bft) S 180 3,1 C 3,9 km/h (1 Bft)
05.12.2015 01:30 3,8 C 3,8 C 91 % 1034,5 hPa 0,0 mm 0,8 km/h (0 Bft) W 270 2,5 C 0,0 km/h (0 Bft)
05.12.2015 01:35 3,6 C 3,6 C 90 % 1034,2 hPa 0,0 mm 0,3 km/h (0 Bft) W 270 2,1 C 0,0 km/h (0 Bft)
05.12.2015 01:40 3,6 C 3,5 C 90 % 1034,2 hPa 0,0 mm 0,0 km/h (0 Bft) SW 225 2,1 C 0,0 km/h (0 Bft)
05.12.2015 01:45 3,9 C 3,7 C 90 % 1034,2 hPa 0,0 mm 0,5 km/h (0 Bft) S 180 2,4 C 2,8 km/h (1 Bft)
05.12.2015 01:50 3,8 C 3,7 C 91 % 1034,2 hPa 0,0 mm 1,3 km/h (1 Bft) SW 225 2,5 C 5,4 km/h (1 Bft)
05.12.2015 01:55 3,6 C 3,5 C 91 % 1033,8 hPa 0,0 mm 1,6 km/h (1 Bft) S 180 2,3 C 0,0 km/h (0 Bft)
05.12.2015 02:00 3,2 C 3,1 C 90 % 1033,8 hPa 0,0 mm 1,3 km/h (1 Bft) S-SO 157 1,7 C 0,0 km/h (0 Bft)
05.12.2015 02:05 3,1 C 3,0 C 90 % 1033,8 hPa 0,0 mm 0,0 km/h (0 Bft) S-SO 157 1,6 C 0,0 km/h (0 Bft)
05.12.2015 02:10 3,1 C 2,9 C 90 % 1033,8 hPa 0,0 mm 0,0 km/h (0 Bft) W-SW 247 1,6 C 0,0 km/h (0 Bft)
05.12.2015 02:15 2,8 C 2,6 C 91 % 1034,0 hPa 0,0 mm 0,0 km/h (0 Bft) S 180 1,5 C 0,0 km/h (0 Bft)
05.12.2015 02:20 3,4 C 3,1 C 91 % 1034,0 hPa 0,0 mm 1,0 km/h (0 Bft) S 180 2,1 C 6,2 km/h (2 Bft)
05.12.2015 02:25 3,6 C 3,4 C 86 % 1034,0 hPa 0,0 mm 3,1 km/h (1 Bft) S-SO 157 1,5 C 4,9 km/h (1 Bft)
05.12.2015 02:30 3,4 C 3,3 C 92 % 1034,0 hPa 0,0 mm 3,4 km/h (1 Bft) S 180 2,2 C 7,5 km/h (2 Bft)
05.12.2015 02:35 3,3 C 3,3 C 87 % 1033,5 hPa 0,0 mm 1,8 km/h (1 Bft) S 180 1,3 C 2,6 km/h (1 Bft)
05.12.2015 02:40 3,1 C 3,0 C 92 % 1033,5 hPa 0,0 mm 2,1 km/h (1 Bft) S-SO 157 1,9 C 3,1 km/h (1 Bft)
05.12.2015 02:45 3,0 C 3,2 C 87 % 1033,5 hPa 0,0 mm 2,6 km/h (1 Bft) S-SO 157 1,1 C 2,8 km/h (1 Bft)
05.12.2015 02:50 2,5 C 2,6 C 93 % 1033,5 hPa 0,0 mm 1,0 km/h (0 Bft) S-SO 157 1,5 C 0,0 km/h (0 Bft)
05.12.2015 02:55 2,1 C 2,1 C 93 % 1033,6 hPa 0,0 mm 0,3 km/h (0 Bft) S 180 1,1 C 0,0 km/h (0 Bft)
05.12.2015 03:00 2,0 C 1,8 C 93 % 1033,6 hPa 0,0 mm 0,0 km/h (0 Bft) S 180 1,0 C 0,0 km/h (0 Bft)
05.12.2015 03:05 1,8 C 1,6 C 93 % 1033,6 hPa 0,0 mm 0,0 km/h (0 Bft) S 180 0,8 C 0,0 km/h (0 Bft)
05.12.2015 03:10 2,1 C 2,0 C 87 % 1033,6 hPa 0,0 mm 0,5 km/h (0 Bft) S 180 0,2 C 0,0 km/h (0 Bft)
05.12.2015 03:15 1,9 C 1,7 C 93 % 1033,7 hPa 0,0 mm 0,5 km/h (0 Bft) SW 225 0,9 C 0,0 km/h (0 Bft)
05.12.2015 03:20 1,9 C 1,7 C 87 % 1033,7 hPa 0,0 mm 0,0 km/h (0 Bft) SO 135 -0,0 C 0,0 km/h (0 Bft)
05.12.2015 03:25 2,0 C 1,7 C 92 % 1033,7 hPa 0,0 mm 0,0 km/h (0 Bft) S-SO 157 0,8 C 0,0 km/h (0 Bft)
05.12.2015 03:30 1,5 C 1,3 C 92 % 1033,7 hPa 0,0 mm 0,0 km/h (0 Bft) O-SO 112 0,3 C 0,0 km/h (0 Bft)
05.12.2015 03:35 1,6 C 1,3 C 92 % 1033,8 hPa 0,0 mm 0,0 km/h (0 Bft) SO 135 0,4 C 0,0 km/h (0 Bft)
05.12.2015 03:40 2,0 C 2,0 C 87 % 1033,8 hPa 0,0 mm 0,0 km/h (0 Bft) SO 135 0,1 C 0,0 km/h (0 Bft)
05.12.2015 03:45 2,0 C 2,1 C 87 % 1033,8 hPa 0,0 mm 0,3 km/h (0 Bft) S-SO 157 0,1 C 2,6 km/h (1 Bft)
05.12.2015 03:50 2,2 C 2,2 C 88 % 1033,8 hPa 0,0 mm 1,3 km/h (1 Bft) S 180 0,4 C 4,4 km/h (1 Bft)
05.12.2015 03:55 2,1 C 2,3 C 88 % 1033,7 hPa 0,0 mm 1,8 km/h (1 Bft) S-SO 157 0,3 C 0,0 km/h (0 Bft)
05.12.2015 04:00 2,1 C 2,5 C 88 % 1033,7 hPa 0,0 mm 1,0 km/h (0 Bft) S 180 0,3 C 0,0 km/h (0 Bft)
05.12.2015 04:05 2,4 C 2,6 C 88 % 1033,7 hPa 0,0 mm 0,0 km/h (0 Bft) S 180 0,6 C 0,0 km/h (0 Bft)
05.12.2015 04:10 1,7 C 2,6 C 94 % 1033,7 hPa 0,0 mm 0,3 km/h (0 Bft) S 180 0,8 C 0,0 km/h (0 Bft)
05.12.2015 04:15 2,0 C 2,3 C 88 % 1033,4 hPa 0,0 mm 0,5 km/h (0 Bft) S 180 0,2 C 0,0 km/h (0 Bft)
05.12.2015 04:20 2,0 C 2,0 C 94 % 1033,4 hPa 0,0 mm 0,5 km/h (0 Bft) S-SW 202 1,1 C 0,0 km/h (0 Bft)
05.12.2015 04:25 1,7 C 1,9 C 94 % 1033,4 hPa 0,0 mm 0,0 km/h (0 Bft) S-SW 202 0,8 C 0,0 km/h (0 Bft)
05.12.2015 04:30 2,0 C 2,2 C 88 % 1033,4 hPa 0,0 mm 0,8 km/h (0 Bft) SW 225 0,2 C 4,9 km/h (1 Bft)
05.12.2015 04:35 1,9 C 2,0 C 94 % 1033,3 hPa 0,0 mm 1,0 km/h (0 Bft) S 180 1,0 C 0,0 km/h (0 Bft)
05.12.2015 04:40 2,0 C 2,0 C 93 % 1033,3 hPa 0,0 mm 0,8 km/h (0 Bft) S-SW 202 1,0 C 0,0 km/h (0 Bft)
05.12.2015 04:45 2,0 C 2,1 C 93 % 1033,3 hPa 0,0 mm 0,0 km/h (0 Bft) S-SW 202 1,0 C 0,0 km/h (0 Bft)
05.12.2015 04:50 1,7 C 2,0 C 94 % 1033,3 hPa 0,0 mm 0,0 km/h (0 Bft) W-SW 247 0,8 C 0,0 km/h (0 Bft)
05.12.2015 04:55 1,7 C 1,7 C 93 % 1033,2 hPa 0,0 mm 0,0 km/h (0 Bft) W-SW 247 0,7 C 0,0 km/h (0 Bft)
05.12.2015 05:00 1,9 C 1,8 C 89 % 1033,2 hPa 0,0 mm 0,0 km/h (0 Bft) W-SW 247 0,3 C 0,0 km/h (0 Bft)
05.12.2015 05:05 1,9 C 1,8 C 94 % 1033,2 hPa 0,0 mm 0,0 km/h (0 Bft) W-SW 247 1,0 C 0,0 km/h (0 Bft)
05.12.2015 05:10 1,7 C 1,7 C 93 % 1033,2 hPa 0,7 mm 0,0 km/h (0 Bft) W-SW 247 0,7 C 0,0 km/h (0 Bft)
05.12.2015 05:15 1,7 C 1,7 C 93 % 1032,8 hPa 0,0 mm 0,0 km/h (0 Bft) W-SW 247 0,7 C 0,0 km/h (0 Bft)
05.12.2015 05:20 1,5 C 1,5 C 93 % 1032,8 hPa 0,0 mm 0,0 km/h (0 Bft) W-SW 247 0,5 C 0,0 km/h (0 Bft)
05.12.2015 05:25 1,4 C 1,4 C 93 % 1032,8 hPa 0,0 mm 0,0 km/h (0 Bft) W-SW 247 0,4 C 0,0 km/h (0 Bft)
05.12.2015 05:30 1,3 C 1,2 C 93 % 1032,8 hPa 0,0 mm 0,0 km/h (0 Bft) SW 225 0,3 C 0,0 km/h (0 Bft)
05.12.2015 05:35 1,4 C 1,2 C 93 % 1032,9 hPa 0,0 mm 0,0 km/h (0 Bft) SW 225 0,4 C 0,0 km/h (0 Bft)
05.12.2015 05:40 1,3 C 1,2 C 88 % 1032,9 hPa 0,0 mm 0,3 km/h (0 Bft) N-NO 22 -0,5 C 0,0 km/h (0 Bft)
05.12.2015 05:45 1,5 C 1,3 C 88 % 1032,9 hPa 0,0 mm 0,3 km/h (0 Bft) O-SO 112 -0,3 C 0,0 km/h (0 Bft)
05.12.2015 05:50 1,6 C 1,2 C 94 % 1032,9 hPa 0,0 mm 0,0 km/h (0 Bft) O-SO 112 0,7 C 0,0 km/h (0 Bft)
05.12.2015 05:55 1,6 C 1,2 C 94 % 1033,0 hPa 0,0 mm 0,0 km/h (0 Bft) O-SO 112 0,7 C 0,0 km/h (0 Bft)
05.12.2015 06:00 1,7 C 1,3 C 94 % 1033,0 hPa 0,0 mm 0,3 km/h (0 Bft) S 180 0,8 C 3,4 km/h (1 Bft)
05.12.2015 06:05 1,6 C 1,3 C 94 % 1033,0 hPa 0,0 mm 0,8 km/h (0 Bft) S 180 0,7 C 0,0 km/h (0 Bft)
05.12.2015 06:10 1,5 C 1,2 C 94 % 1033,0 hPa 0,0 mm 0,8 km/h (0 Bft) S 180 0,6 C 2,8 km/h (1 Bft)
05.12.2015 06:15 1,4 C 1,1 C 94 % 1033,1 hPa 0,0 mm 0,3 km/h (0 Bft) S-SO 157 0,5 C 0,0 km/h (0 Bft)
05.12.2015 06:20 1,2 C 0,9 C 94 % 1033,1 hPa 0,0 mm 0,8 km/h (0 Bft) S-SO 157 0,3 C 0,0 km/h (0 Bft)
05.12.2015 06:25 1,4 C 1,1 C 94 % 1033,1 hPa 0,0 mm 1,0 km/h (0 Bft) S 180 0,5 C 3,4 km/h (1 Bft)
05.12.2015 06:30 1,3 C 1,0 C 94 % 1033,1 hPa 0,0 mm 0,5 km/h (0 Bft) S-SO 157 0,4 C 0,0 km/h (0 Bft)
05.12.2015 06:35 1,3 C 1,1 C 89 % 1033,0 hPa 0,0 mm 0,8 km/h (0 Bft) S-SO 157 -0,3 C 2,6 km/h (1 Bft)
05.12.2015 06:40 1,6 C 1,2 C 94 % 1033,0 hPa 0,0 mm 0,3 km/h (0 Bft) SO 135 0,7 C 0,0 km/h (0 Bft)
05.12.2015 06:45 1,7 C 1,3 C 94 % 1033,0 hPa 0,0 mm 0,0 km/h (0 Bft) S-SO 157 0,8 C 0,0 km/h (0 Bft)
05.12.2015 06:50 1,6 C 1,3 C 94 % 1033,0 hPa 0,0 mm 0,3 km/h (0 Bft) S-SO 157 0,7 C 0,0 km/h (0 Bft)
05.12.2015 06:55 1,5 C 1,2 C 95 % 1033,0 hPa 0,0 mm 0,3 km/h (0 Bft) S 180 0,8 C 0,0 km/h (0 Bft)
05.12.2015 07:00 1,4 C 1,1 C 95 % 1033,0 hPa 0,0 mm 0,3 km/h (0 Bft) O-SO 112 0,7 C 0,0 km/h (0 Bft)
05.12.2015 07:05 0,8 C 0,6 C 95 % 1033,0 hPa 0,0 mm 0,5 km/h (0 Bft) N-NO 22 0,1 C 0,0 km/h (0 Bft)
05.12.2015 07:10 0,6 C 0,3 C 94 % 1033,0 hPa 0,0 mm 0,3 km/h (0 Bft) O-SO 112 -0,3 C 0,0 km/h (0 Bft)
05.12.2015 07:11 0,9 C 0,5 C 95 % 1033,0 hPa 0,0 mm 1,0 km/h (0 Bft) O-SO 112 0,2 C 4,4 km/h (1 Bft)
05.12.2015 07:14 0,9 C 0,5 C 95 % 1033,0 hPa 0,0 mm 1,0 km/h (0 Bft) O-SO 112 0,2 C 4,4 km/h (1 Bft)
05.12.2015 07:20 0,9 C 0,5 C 95 % 1033,0 hPa 0,0 mm 1,3 km/h (1 Bft) SO 135 0,2 C 0,0 km/h (0 Bft)
05.12.2015 07:25 0,8 C 0,4 C 95 % 1033,0 hPa 0,0 mm 0,8 km/h (0 Bft) SO 135 0,1 C 0,0 km/h (0 Bft)
05.12.2015 07:30 0,9 C 0,5 C 95 % 1033,0 hPa 0,0 mm 0,5 km/h (0 Bft) S 180 0,2 C 0,0 km/h (0 Bft)
05.12.2015 07:35 1,0 C 0,7 C 89 % 1033,5 hPa 0,0 mm 1,8 km/h (1 Bft) S-SO 157 -0,6 C 3,6 km/h (1 Bft)
05.12.2015 07:40 0,6 C 0,4 C 95 % 1033,5 hPa 0,0 mm 2,3 km/h (1 Bft) S-SO 157 -0,1 C 0,0 km/h (0 Bft)
05.12.2015 07:45 0,3 C 0,1 C 95 % 1033,5 hPa 0,0 mm 1,3 km/h (1 Bft) S 180 -0,4 C 0,0 km/h (0 Bft)
05.12.2015 07:50 0,3 C 0,1 C 95 % 1033,5 hPa 0,0 mm 1,0 km/h (0 Bft) NW 315 -0,4 C 3,6 km/h (1 Bft)
05.12.2015 07:55 0,1 C -0,1 C 94 % 1033,7 hPa 0,0 mm 1,0 km/h (0 Bft) W-SW 247 -0,7 C 0,0 km/h (0 Bft)
05.12.2015 08:00 0,0 C -0,2 C 94 % 1033,7 hPa 0,0 mm 0,3 km/h (0 Bft) S 180 -0,8 C 0,0 km/h (0 Bft)
05.12.2015 08:05 -0,2 C -0,4 C 94 % 1033,7 hPa 0,0 mm 0,0 km/h (0 Bft) S-SO 157 -1,0 C 0,0 km/h (0 Bft)
05.12.2015 08:10 0,1 C -0,1 C 89 % 1033,7 hPa 0,0 mm 0,8 km/h (0 Bft) S-SO 157 -1,5 C 0,0 km/h (0 Bft)
05.12.2015 08:15 0,1 C -0,1 C 94 % 1033,8 hPa 0,0 mm 0,8 km/h (0 Bft) S-SO 157 -0,7 C 0,0 km/h (0 Bft)
05.12.2015 08:20 -0,3 C -0,5 C 94 % 1033,8 hPa 0,0 mm 0,0 km/h (0 Bft) S-SO 157 -1,1 C 0,0 km/h (0 Bft)
05.12.2015 08:25 -0,4 C -0,6 C 94 % 1033,8 hPa 0,0 mm 0,0 km/h (0 Bft) S-SO 157 -1,2 C 0,0 km/h (0 Bft)
05.12.2015 08:30 -0,7 C -0,9 C 94 % 1033,8 hPa 0,0 mm 0,0 km/h (0 Bft) S-SO 157 -1,5 C 0,0 km/h (0 Bft)
05.12.2015 08:35 -0,6 C -0,9 C 94 % 1033,8 hPa 0,0 mm 0,0 km/h (0 Bft) SW 225 -1,4 C 0,0 km/h (0 Bft)
05.12.2015 08:40 -0,3 C -0,6 C 89 % 1033,8 hPa 0,0 mm 0,0 km/h (0 Bft) S-SO 157 -1,9 C 0,0 km/h (0 Bft)
05.12.2015 08:45 -0,1 C -0,5 C 94 % 1033,8 hPa 0,0 mm 0,0 km/h (0 Bft) S-SO 157 -0,9 C 0,0 km/h (0 Bft)
05.12.2015 08:50 -0,2 C -0,4 C 94 % 1033,8 hPa 0,0 mm 0,0 km/h (0 Bft) N-NW 337 -1,0 C 0,0 km/h (0 Bft)
05.12.2015 08:55 -0,2 C -0,4 C 94 % 1033,6 hPa 0,0 mm 0,0 km/h (0 Bft) NO 45 -1,0 C 0,0 km/h (0 Bft)
05.12.2015 09:00 -0,3 C -0,5 C 94 % 1033,6 hPa 0,0 mm 0,3 km/h (0 Bft) NO 45 -1,1 C 0,0 km/h (0 Bft)
05.12.2015 09:05 0,0 C -0,3 C 94 % 1033,6 hPa 0,0 mm 0,0 km/h (0 Bft) NO 45 -0,8 C 0,0 km/h (0 Bft)
05.12.2015 09:10 0,2 C 0,0 C 89 % 1033,6 hPa 0,0 mm 0,0 km/h (0 Bft) NO 45 -1,4 C 0,0 km/h (0 Bft)
05.12.2015 09:15 0,4 C 0,1 C 89 % 1033,3 hPa 0,0 mm 0,0 km/h (0 Bft) NO 45 -1,2 C 0,0 km/h (0 Bft)
05.12.2015 09:20 0,3 C 0,1 C 95 % 1033,3 hPa 0,0 mm 0,0 km/h (0 Bft) NO 45 -0,4 C 0,0 km/h (0 Bft)
05.12.2015 09:25 0,1 C 0,0 C 95 % 1033,3 hPa 0,0 mm 0,0 km/h (0 Bft) N-NW 337 -0,6 C 0,0 km/h (0 Bft)
05.12.2015 09:30 0,1 C -0,1 C 95 % 1033,3 hPa 0,0 mm 0,0 km/h (0 Bft) NO 45 -0,6 C 0,0 km/h (0 Bft)
05.12.2015 09:35 0,3 C 0,1 C 95 % 1032,9 hPa 0,0 mm 0,0 km/h (0 Bft) N 360 -0,4 C 0,0 km/h (0 Bft)
05.12.2015 09:40 0,4 C 0,2 C 95 % 1032,9 hPa 0,0 mm 0,0 km/h (0 Bft) N-NW 337 -0,3 C 0,0 km/h (0 Bft)
05.12.2015 09:45 0,6 C 0,4 C 95 % 1032,9 hPa 0,0 mm 0,0 km/h (0 Bft) N-NW 337 -0,1 C 0,0 km/h (0 Bft)
05.12.2015 09:50 1,0 C 0,9 C 95 % 1032,9 hPa 0,0 mm 0,0 km/h (0 Bft) W 270 0,3 C 0,0 km/h (0 Bft)
05.12.2015 09:55 1,2 C 1,1 C 95 % 1033,0 hPa 0,0 mm 0,3 km/h (0 Bft) W-SW 247 0,5 C 3,1 km/h (1 Bft)
05.12.2015 10:00 1,5 C 1,4 C 95 % 1033,0 hPa 0,0 mm 0,5 km/h (0 Bft) W-NW 292 0,8 C 0,0 km/h (0 Bft)
05.12.2015 10:05 1,8 C 1,6 C 95 % 1033,0 hPa 0,0 mm 0,5 km/h (0 Bft) W-SW 247 1,1 C 0,0 km/h (0 Bft)
05.12.2015 10:10 2,4 C 2,2 C 95 % 1033,0 hPa 0,0 mm 0,5 km/h (0 Bft) SW 225 1,7 C 0,0 km/h (0 Bft)
05.12.2015 10:15 2,6 C 2,4 C 95 % 1033,2 hPa 0,0 mm 1,6 km/h (1 Bft) W-SW 247 1,9 C 0,0 km/h (0 Bft)
05.12.2015 10:20 2,6 C 2,5 C 95 % 1033,2 hPa 0,0 mm 1,0 km/h (0 Bft) SW 225 1,9 C 0,0 km/h (0 Bft)
05.12.2015 10:25 2,5 C 2,4 C 95 % 1033,2 hPa 0,0 mm 0,3 km/h (0 Bft) W-SW 247 1,8 C 0,0 km/h (0 Bft)
05.12.2015 10:30 2,8 C 2,6 C 95 % 1033,2 hPa 0,0 mm 0,0 km/h (0 Bft) S 180 2,1 C 0,0 km/h (0 Bft)
05.12.2015 10:35 2,9 C 2,7 C 95 % 1033,0 hPa 0,0 mm 0,0 km/h (0 Bft) S 180 2,2 C 0,0 km/h (0 Bft)
05.12.2015 10:40 2,8 C 2,7 C 95 % 1033,0 hPa 0,0 mm 0,0 km/h (0 Bft) SW 225 2,1 C 0,0 km/h (0 Bft)
05.12.2015 10:45 2,9 C 2,8 C 95 % 1033,0 hPa 0,0 mm 1,0 km/h (0 Bft) W 270 2,2 C 4,7 km/h (1 Bft)
05.12.2015 10:50 3,3 C 3,3 C 94 % 1033,0 hPa 0,0 mm 3,1 km/h (1 Bft) W-NW 292 2,4 C 2,6 km/h (1 Bft)
05.12.2015 10:55 3,2 C 3,5 C 94 % 1033,0 hPa 0,0 mm 2,6 km/h (1 Bft) W 270 2,3 C 0,0 km/h (0 Bft)
05.12.2015 11:00 3,8 C 3,8 C 94 % 1033,0 hPa 0,0 mm 1,0 km/h (0 Bft) SW 225 2,9 C 6,2 km/h (2 Bft)
05.12.2015 11:05 4,2 C 4,2 C 94 % 1033,0 hPa 0,0 mm 2,8 km/h (1 Bft) W-SW 247 3,3 C 6,7 km/h (2 Bft)
05.12.2015 11:10 4,4 C 4,3 C 94 % 1033,0 hPa 0,0 mm 5,4 km/h (1 Bft) W-SW 247 3,5 C 10,4 km/h (2 Bft)
05.12.2015 11:15 4,3 C 4,5 C 94 % 1032,8 hPa 0,0 mm 4,1 km/h (1 Bft) W-SW 247 3,4 C 4,1 km/h (1 Bft)
05.12.2015 11:20 4,6 C 4,7 C 95 % 1032,8 hPa 0,0 mm 3,1 km/h (1 Bft) W-SW 247 3,9 C 4,7 km/h (1 Bft)
05.12.2015 11:25 4,6 C 4,8 C 95 % 1032,8 hPa 0,0 mm 2,8 km/h (1 Bft) W 270 3,9 C 0,0 km/h (0 Bft)
05.12.2015 11:30 4,6 C 4,7 C 95 % 1032,8 hPa 0,0 mm 0,5 km/h (0 Bft) W-SW 247 3,9 C 0,0 km/h (0 Bft)
05.12.2015 11:35 4,7 C 4,7 C 95 % 1032,6 hPa 0,0 mm 0,0 km/h (0 Bft) W 270 4,0 C 0,0 km/h (0 Bft)
05.12.2015 11:40 4,4 C 4,8 C 94 % 1032,6 hPa 0,0 mm 1,0 km/h (0 Bft) NW 315 3,5 C 0,0 km/h (0 Bft)
05.12.2015 11:45 4,4 C 5,0 C 94 % 1032,6 hPa 0,0 mm 1,3 km/h (1 Bft) W 270 3,5 C 4,7 km/h (1 Bft)
05.12.2015 11:50 4,6 C 5,0 C 94 % 1032,6 hPa 0,0 mm 0,8 km/h (0 Bft) W-SW 247 3,7 C 0,0 km/h (0 Bft)
05.12.2015 11:51 4,7 C 5,0 C 94 % 1032,5 hPa 0,0 mm 0,5 km/h (0 Bft) W-SW 247 3,8 C 0,0 km/h (0 Bft)
05.12.2015 11:56 4,7 C 5,0 C 94 % 1032,5 hPa 0,0 mm 0,5 km/h (0 Bft) W-SW 247 3,8 C 0,0 km/h (0 Bft)
05.12.2015 12:00 4,8 C 5,1 C 94 % 1032,5 hPa 0,0 mm 0,5 km/h (0 Bft) W 270 3,9 C 3,4 km/h (1 Bft)
05.12.2015 12:05 5,2 C 5,3 C 94 % 1032,5 hPa 0,0 mm 1,6 km/h (1 Bft) W-SW 247 4,3 C 2,8 km/h (1 Bft)
05.12.2015 12:10 5,2 C 5,5 C 94 % 1032,5 hPa 0,0 mm 1,6 km/h (1 Bft) W-SW 247 4,3 C 0,0 km/h (0 Bft)
05.12.2015 12:15 5,2 C 5,5 C 94 % 1032,1 hPa 0,0 mm 0,3 km/h (0 Bft) NW 315 4,3 C 2,8 km/h (1 Bft)
05.12.2015 12:20 5,3 C 5,5 C 94 % 1032,1 hPa 0,0 mm 0,0 km/h (0 Bft) W-SW 247 4,4 C 0,0 km/h (0 Bft)
05.12.2015 12:25 5,4 C 5,6 C 94 % 1032,1 hPa 0,0 mm 0,0 km/h (0 Bft) NW 315 4,5 C 0,0 km/h (0 Bft)
05.12.2015 12:30 5,7 C 5,7 C 94 % 1032,1 hPa 0,0 mm 0,0 km/h (0 Bft) NW 315 4,8 C 0,0 km/h (0 Bft)
05.12.2015 12:35 5,8 C 5,7 C 94 % 1031,9 hPa 0,0 mm 0,0 km/h (0 Bft) W-NW 292 4,9 C 0,0 km/h (0 Bft)
05.12.2015 12:40 5,7 C 5,7 C 94 % 1031,9 hPa 0,0 mm 0,0 km/h (0 Bft) W-SW 247 4,8 C 0,0 km/h (0 Bft)
05.12.2015 12:45 5,9 C 5,8 C 94 % 1031,9 hPa 0,0 mm 0,3 km/h (0 Bft) SW 225 5,0 C 4,7 km/h (1 Bft)
05.12.2015 12:50 6,0 C 6,0 C 92 % 1031,9 hPa 0,0 mm 1,0 km/h (0 Bft) W-SW 247 4,8 C 0,0 km/h (0 Bft)
05.12.2015 12:55 6,0 C 6,1 C 92 % 1031,5 hPa 0,0 mm 1,0 km/h (0 Bft) W-NW 292 4,8 C 0,0 km/h (0 Bft)
05.12.2015 13:00 6,1 C 6,2 C 92 % 1031,5 hPa 0,0 mm 0,0 km/h (0 Bft) SW 225 4,9 C 0,0 km/h (0 Bft)
05.12.2015 13:05 6,3 C 6,3 C 92 % 1031,5 hPa 0,0 mm 0,0 km/h (0 Bft) W-SW 247 5,1 C 0,0 km/h (0 Bft)
05.12.2015 13:10 6,2 C 6,5 C 92 % 1031,5 hPa 0,0 mm 0,0 km/h (0 Bft) SW 225 5,0 C 0,0 km/h (0 Bft)
05.12.2015 13:15 6,1 C 6,6 C 91 % 1031,3 hPa 0,0 mm 0,0 km/h (0 Bft) NW 315 4,7 C 0,0 km/h (0 Bft)
05.12.2015 13:20 6,0 C 6,5 C 91 % 1031,3 hPa 0,0 mm 0,0 km/h (0 Bft) NW 315 4,6 C 0,0 km/h (0 Bft)
05.12.2015 13:25 6,1 C 6,5 C 91 % 1031,3 hPa 0,0 mm 0,0 km/h (0 Bft) NW 315 4,7 C 0,0 km/h (0 Bft)
05.12.2015 13:30 6,5 C 6,7 C 91 % 1031,3 hPa 0,0 mm 0,0 km/h (0 Bft) SW 225 5,1 C 0,0 km/h (0 Bft)
05.12.2015 13:35 6,9 C 7,1 C 90 % 1031,3 hPa 0,0 mm 0,0 km/h (0 Bft) S 180 5,4 C 0,0 km/h (0 Bft)
05.12.2015 13:40 7,4 C 9,1 C 90 % 1031,3 hPa 0,0 mm 0,0 km/h (0 Bft) SW 225 5,9 C 0,0 km/h (0 Bft)
05.12.2015 13:45 7,9 C 10,6 C 89 % 1031,3 hPa 0,0 mm 0,8 km/h (0 Bft) SW 225 6,2 C 4,7 km/h (1 Bft)
05.12.2015 13:50 7,9 C 12,6 C 88 % 1031,3 hPa 0,0 mm 0,8 km/h (0 Bft) SO 135 6,0 C 0,0 km/h (0 Bft)
05.12.2015 13:55 7,7 C 13,5 C 87 % 1031,2 hPa 0,0 mm 0,5 km/h (0 Bft) SO 135 5,7 C 0,0 km/h (0 Bft)
05.12.2015 14:00 7,5 C 14,7 C 86 % 1031,2 hPa 0,0 mm 0,0 km/h (0 Bft) O-NO 67 5,3 C 0,0 km/h (0 Bft)
05.12.2015 14:05 7,5 C 15,2 C 85 % 1031,2 hPa 0,0 mm 0,0 km/h (0 Bft) O 90 5,1 C 0,0 km/h (0 Bft)
05.12.2015 14:10 7,4 C 15,2 C 84 % 1031,2 hPa 0,0 mm 0,0 km/h (0 Bft) O-NO 67 4,9 C 0,0 km/h (0 Bft)
05.12.2015 14:15 7,1 C 13,6 C 83 % 1031,2 hPa 0,0 mm 0,0 km/h (0 Bft) SO 135 4,4 C 0,0 km/h (0 Bft)
05.12.2015 14:20 6,9 C 12,7 C 84 % 1031,2 hPa 0,0 mm 0,0 km/h (0 Bft) O-SO 112 4,4 C 0,0 km/h (0 Bft)
05.12.2015 14:25 6,7 C 12,2 C 84 % 1031,2 hPa 0,0 mm 0,0 km/h (0 Bft) O-SO 112 4,2 C 0,0 km/h (0 Bft)
05.12.2015 14:30 6,9 C 11,4 C 85 % 1031,2 hPa 0,0 mm 0,0 km/h (0 Bft) O-NO 67 4,6 C 0,0 km/h (0 Bft)
05.12.2015 14:35 7,1 C 11,7 C 85 % 1031,0 hPa 0,0 mm 0,3 km/h (0 Bft) O-NO 67 4,8 C 0,0 km/h (0 Bft)
05.12.2015 14:40 6,9 C 12,8 C 85 % 1031,0 hPa 0,0 mm 0,3 km/h (0 Bft) SO 135 4,6 C 0,0 km/h (0 Bft)
05.12.2015 14:45 6,8 C 13,2 C 85 % 1031,0 hPa 0,0 mm 0,0 km/h (0 Bft) SO 135 4,5 C 0,0 km/h (0 Bft)
05.12.2015 14:50 6,9 C 12,0 C 85 % 1031,0 hPa 0,0 mm 0,0 km/h (0 Bft) SO 135 4,6 C 0,0 km/h (0 Bft)
05.12.2015 14:55 7,2 C 11,7 C 84 % 1030,8 hPa 0,0 mm 0,0 km/h (0 Bft) O 90 4,7 C 0,0 km/h (0 Bft)
05.12.2015 15:00 7,3 C 12,2 C 84 % 1030,8 hPa 0,0 mm 0,0 km/h (0 Bft) SO 135 4,8 C 0,0 km/h (0 Bft)
05.12.2015 15:05 7,0 C 11,1 C 83 % 1030,8 hPa 0,0 mm 0,0 km/h (0 Bft) O-NO 67 4,3 C 0,0 km/h (0 Bft)
05.12.2015 15:10 7,2 C 9,7 C 83 % 1030,8 hPa 0,0 mm 0,0 km/h (0 Bft) O-NO 67 4,5 C 0,0 km/h (0 Bft)
05.12.2015 15:15 6,9 C 8,8 C 83 % 1030,9 hPa 0,0 mm 0,0 km/h (0 Bft) O-NO 67 4,2 C 0,0 km/h (0 Bft)
05.12.2015 15:20 7,0 C 7,9 C 82 % 1030,9 hPa 0,0 mm 0,0 km/h (0 Bft) O-NO 67 4,1 C 0,0 km/h (0 Bft)
05.12.2015 15:25 6,8 C 7,6 C 82 % 1030,9 hPa 0,0 mm 0,0 km/h (0 Bft) O-SO 112 3,9 C 0,0 km/h (0 Bft)
05.12.2015 15:30 7,1 C 7,1 C 82 % 1030,9 hPa 0,0 mm 0,0 km/h (0 Bft) O-SO 112 4,2 C 0,0 km/h (0 Bft)
05.12.2015 15:35 7,2 C 7,1 C 82 % 1031,0 hPa 0,0 mm 0,3 km/h (0 Bft) SO 135 4,3 C 3,1 km/h (1 Bft)
05.12.2015 15:40 7,1 C 7,1 C 81 % 1031,0 hPa 0,0 mm 0,5 km/h (0 Bft) SO 135 4,1 C 0,0 km/h (0 Bft)
05.12.2015 15:45 7,0 C 6,9 C 81 % 1031,0 hPa 0,0 mm 0,3 km/h (0 Bft) S-SO 157 4,0 C 0,0 km/h (0 Bft)
05.12.2015 15:50 6,9 C 6,8 C 81 % 1031,0 hPa 0,0 mm 0,0 km/h (0 Bft) S 180 3,9 C 0,0 km/h (0 Bft)
05.12.2015 15:55 6,6 C 6,7 C 77 % 1030,9 hPa 0,0 mm 0,0 km/h (0 Bft) S 180 2,9 C 0,0 km/h (0 Bft)
05.12.2015 16:00 6,7 C 6,6 C 82 % 1030,9 hPa 0,0 mm 0,0 km/h (0 Bft) S 180 3,8 C 0,0 km/h (0 Bft)
05.12.2015 16:05 6,2 C 6,3 C 78 % 1030,9 hPa 0,0 mm 0,3 km/h (0 Bft) S 180 2,7 C 0,0 km/h (0 Bft)
05.12.2015 16:10 6,1 C 6,1 C 82 % 1030,9 hPa 0,0 mm 1,6 km/h (1 Bft) S-SW 202 3,3 C 3,1 km/h (1 Bft)
05.12.2015 16:15 5,9 C 5,9 C 84 % 1031,3 hPa 0,0 mm 2,1 km/h (1 Bft) S 180 3,4 C 3,4 km/h (1 Bft)
05.12.2015 16:20 5,8 C 5,7 C 85 % 1031,3 hPa 0,0 mm 1,6 km/h (1 Bft) S-SO 157 3,5 C 0,0 km/h (0 Bft)
05.12.2015 16:25 4,9 C 5,2 C 84 % 1031,3 hPa 0,0 mm 0,5 km/h (0 Bft) SO 135 2,4 C 0,0 km/h (0 Bft)
05.12.2015 16:30 5,3 C 5,1 C 86 % 1031,3 hPa 0,0 mm 0,3 km/h (0 Bft) S-SW 202 3,2 C 0,0 km/h (0 Bft)
05.12.2015 16:35 4,8 C 4,7 C 85 % 1031,4 hPa 0,0 mm 0,5 km/h (0 Bft) S 180 2,5 C 0,0 km/h (0 Bft)
05.12.2015 16:40 4,5 C 4,3 C 85 % 1031,4 hPa 0,0 mm 0,5 km/h (0 Bft) S 180 2,2 C 0,0 km/h (0 Bft)
05.12.2015 16:45 4,4 C 4,3 C 82 % 1031,4 hPa 0,0 mm 0,5 km/h (0 Bft) SW 225 1,6 C 6,2 km/h (2 Bft)
05.12.2015 16:50 4,7 C 4,4 C 86 % 1031,4 hPa 0,0 mm 1,3 km/h (1 Bft) S-SW 202 2,6 C 0,0 km/h (0 Bft)
05.12.2015 16:55 4,7 C 4,3 C 86 % 1031,3 hPa 0,0 mm 1,0 km/h (0 Bft) S 180 2,6 C 0,0 km/h (0 Bft)
05.12.2015 17:00 4,1 C 3,8 C 86 % 1031,3 hPa 0,0 mm 0,0 km/h (0 Bft) S 180 2,0 C 0,0 km/h (0 Bft)
05.12.2015 17:05 4,3 C 3,8 C 86 % 1031,3 hPa 0,0 mm 0,0 km/h (0 Bft) S 180 2,2 C 0,0 km/h (0 Bft)
05.12.2015 17:10 4,2 C 3,7 C 86 % 1031,3 hPa 0,0 mm 0,0 km/h (0 Bft) S-SO 157 2,1 C 0,0 km/h (0 Bft)
05.12.2015 17:15 4,2 C 3,7 C 86 % 1031,4 hPa 0,0 mm 0,0 km/h (0 Bft) S-SO 157 2,1 C 0,0 km/h (0 Bft)
05.12.2015 17:20 4,2 C 3,7 C 87 % 1031,4 hPa 0,0 mm 0,0 km/h (0 Bft) S-SO 157 2,2 C 0,0 km/h (0 Bft)
05.12.2015 17:25 4,1 C 3,6 C 86 % 1031,4 hPa 0,0 mm 0,0 km/h (0 Bft) S-SO 157 2,0 C 0,0 km/h (0 Bft)
05.12.2015 17:30 3,1 C 2,8 C 86 % 1031,4 hPa 0,0 mm 0,0 km/h (0 Bft) S-SO 157 1,0 C 0,0 km/h (0 Bft)
05.12.2015 17:35 2,8 C 2,5 C 86 % 1032,0 hPa 0,0 mm 0,0 km/h (0 Bft) S-SO 157 0,7 C 0,0 km/h (0 Bft)
05.12.2015 17:40 2,6 C 2,3 C 86 % 1032,0 hPa 0,0 mm 0,0 km/h (0 Bft) S-SO 157 0,5 C 0,0 km/h (0 Bft)
05.12.2015 17:45 2,8 C 2,4 C 87 % 1032,0 hPa 0,0 mm 0,0 km/h (0 Bft) SO 135 0,9 C 0,0 km/h (0 Bft)
05.12.2015 17:50 2,6 C 2,2 C 87 % 1032,0 hPa 0,0 mm 0,3 km/h (0 Bft) N-NO 22 0,7 C 0,0 km/h (0 Bft)
05.12.2015 17:55 2,7 C 2,2 C 88 % 1032,0 hPa 0,0 mm 0,3 km/h (0 Bft) S-SO 157 0,9 C 0,0 km/h (0 Bft)
05.12.2015 17:56 2,7 C 2,2 C 88 % 1032,0 hPa 0,0 mm 0,3 km/h (0 Bft) S-SO 157 0,9 C 0,0 km/h (0 Bft)
05.12.2015 18:00 2,7 C 2,3 C 88 % 1032,0 hPa 0,0 mm 0,5 km/h (0 Bft) SO 135 0,9 C 0,0 km/h (0 Bft)
05.12.2015 18:05 2,3 C 2,0 C 88 % 1032,0 hPa 0,0 mm 0,5 km/h (0 Bft) SW 225 0,5 C 0,0 km/h (0 Bft)
05.12.2015 18:10 2,3 C 2,0 C 84 % 1032,0 hPa 0,0 mm 0,0 km/h (0 Bft) SO 135 -0,1 C 0,0 km/h (0 Bft)
05.12.2015 18:15 2,2 C 1,9 C 89 % 1032,2 hPa 0,0 mm 0,3 km/h (0 Bft) O-SO 112 0,6 C 0,0 km/h (0 Bft)
05.12.2015 18:20 2,5 C 2,2 C 84 % 1032,2 hPa 0,0 mm 0,5 km/h (0 Bft) S 180 0,1 C 4,1 km/h (1 Bft)
05.12.2015 18:25 2,9 C 2,4 C 91 % 1032,2 hPa 0,0 mm 1,0 km/h (0 Bft) S 180 1,6 C 3,6 km/h (1 Bft)
05.12.2015 18:30 2,8 C 2,6 C 85 % 1032,2 hPa 0,0 mm 1,3 km/h (1 Bft) S-SO 157 0,5 C 0,0 km/h (0 Bft)
05.12.2015 18:35 2,9 C 2,6 C 91 % 1032,0 hPa 0,0 mm 1,0 km/h (0 Bft) S 180 1,6 C 0,0 km/h (0 Bft)
05.12.2015 18:40 2,3 C 2,1 C 90 % 1032,0 hPa 0,0 mm 0,5 km/h (0 Bft) SO 135 0,8 C 0,0 km/h (0 Bft)
05.12.2015 18:45 2,3 C 2,1 C 85 % 1032,0 hPa 0,0 mm 1,0 km/h (0 Bft) SO 135 0,0 C 0,0 km/h (0 Bft)
05.12.2015 18:50 2,1 C 1,8 C 90 % 1032,0 hPa 0,0 mm 1,0 km/h (0 Bft) O-SO 112 0,6 C 2,8 km/h (1 Bft)
05.12.2015 18:55 2,3 C 2,0 C 85 % 1032,0 hPa 0,0 mm 0,5 km/h (0 Bft) S-SO 157 0,0 C 0,0 km/h (0 Bft)
05.12.2015 19:00 1,9 C 1,6 C 91 % 1032,0 hPa 0,0 mm 0,0 km/h (0 Bft) SO 135 0,6 C 0,0 km/h (0 Bft)
05.12.2015 19:05 1,7 C 1,4 C 90 % 1032,0 hPa 0,0 mm 0,0 km/h (0 Bft) SO 135 0,2 C 0,0 km/h (0 Bft)
05.12.2015 19:10 1,2 C 1,0 C 90 % 1032,0 hPa 0,0 mm 0,0 km/h (0 Bft) SO 135 -0,3 C 0,0 km/h (0 Bft)
05.12.2015 19:15 1,1 C 0,9 C 89 % 1031,8 hPa 0,0 mm 0,0 km/h (0 Bft) SO 135 -0,5 C 0,0 km/h (0 Bft)
05.12.2015 19:20 1,1 C 0,8 C 89 % 1031,8 hPa 0,0 mm 0,0 km/h (0 Bft) SO 135 -0,5 C 0,0 km/h (0 Bft)
05.12.2015 19:25 0,9 C 0,6 C 90 % 1031,8 hPa 0,0 mm 0,0 km/h (0 Bft) SO 135 -0,6 C 0,0 km/h (0 Bft)
05.12.2015 19:30 1,0 C 0,6 C 89 % 1031,8 hPa 0,0 mm 0,0 km/h (0 Bft) SO 135 -0,6 C 0,0 km/h (0 Bft)
05.12.2015 19:35 0,7 C 0,4 C 90 % 1031,9 hPa 0,0 mm 0,0 km/h (0 Bft) SO 135 -0,7 C 0,0 km/h (0 Bft)
05.12.2015 19:40 1,1 C 0,7 C 90 % 1031,9 hPa 0,0 mm 0,0 km/h (0 Bft) SO 135 -0,4 C 0,0 km/h (0 Bft)
05.12.2015 19:45 1,1 C 0,7 C 90 % 1031,9 hPa 0,0 mm 0,0 km/h (0 Bft) SO 135 -0,4 C 0,0 km/h (0 Bft)
05.12.2015 19:50 1,1 C 0,7 C 90 % 1031,9 hPa 0,0 mm 0,0 km/h (0 Bft) SO 135 -0,4 C 0,0 km/h (0 Bft)
05.12.2015 19:55 0,7 C 0,4 C 90 % 1031,9 hPa 0,0 mm 0,0 km/h (0 Bft) S 180 -0,7 C 0,0 km/h (0 Bft)
05.12.2015 20:00 0,6 C 0,3 C 90 % 1031,9 hPa 0,0 mm 0,0 km/h (0 Bft) S 180 -0,8 C 0,0 km/h (0 Bft)
05.12.2015 20:05 0,3 C 0,0 C 90 % 1031,9 hPa 0,0 mm 0,0 km/h (0 Bft) S 180 -1,1 C 0,0 km/h (0 Bft)
05.12.2015 20:10 0,2 C -0,1 C 90 % 1031,9 hPa 0,0 mm 0,0 km/h (0 Bft) S 180 -1,2 C 0,0 km/h (0 Bft)
05.12.2015 20:15 0,2 C -0,1 C 90 % 1031,6 hPa 0,0 mm 0,0 km/h (0 Bft) S 180 -1,2 C 0,0 km/h (0 Bft)
05.12.2015 20:20 0,2 C -0,1 C 90 % 1031,6 hPa 0,0 mm 0,0 km/h (0 Bft) O-SO 112 -1,2 C 0,0 km/h (0 Bft)
05.12.2015 20:25 0,0 C -0,3 C 90 % 1031,6 hPa 0,0 mm 0,0 km/h (0 Bft) SO 135 -1,4 C 0,0 km/h (0 Bft)
05.12.2015 20:30 0,2 C -0,2 C 90 % 1031,6 hPa 0,0 mm 0,0 km/h (0 Bft) O-SO 112 -1,2 C 0,0 km/h (0 Bft)
05.12.2015 20:35 0,1 C -0,2 C 90 % 1031,3 hPa 0,0 mm 0,0 km/h (0 Bft) NO 45 -1,3 C 0,0 km/h (0 Bft)
05.12.2015 20:40 0,0 C -0,3 C 90 % 1031,3 hPa 0,0 mm 0,0 km/h (0 Bft) NO 45 -1,4 C 0,0 km/h (0 Bft)
05.12.2015 20:45 -0,3 C -0,5 C 90 % 1031,3 hPa 0,0 mm 0,0 km/h (0 Bft) NO 45 -1,7 C 0,0 km/h (0 Bft)
05.12.2015 20:50 0,1 C -0,3 C 90 % 1031,3 hPa 0,0 mm 0,0 km/h (0 Bft) NO 45 -1,3 C 0,0 km/h (0 Bft)
05.12.2015 20:55 0,1 C -0,3 C 90 % 1031,1 hPa 0,0 mm 0,0 km/h (0 Bft) NO 45 -1,3 C 0,0 km/h (0 Bft)
05.12.2015 21:00 0,1 C -0,2 C 91 % 1031,1 hPa 0,0 mm 0,0 km/h (0 Bft) NO 45 -1,2 C 0,0 km/h (0 Bft)
05.12.2015 21:05 0,0 C -0,3 C 91 % 1031,1 hPa 0,0 mm 0,0 km/h (0 Bft) N-NW 337 -1,3 C 0,0 km/h (0 Bft)
05.12.2015 21:10 -0,1 C -0,4 C 91 % 1031,1 hPa 0,0 mm 0,0 km/h (0 Bft) N-NW 337 -1,4 C 0,0 km/h (0 Bft)
05.12.2015 21:15 0,0 C -0,4 C 91 % 1030,9 hPa 0,0 mm 0,0 km/h (0 Bft) N-NW 337 -1,3 C 0,0 km/h (0 Bft)
05.12.2015 21:20 0,1 C -0,2 C 91 % 1030,9 hPa 0,0 mm 0,0 km/h (0 Bft) NO 45 -1,2 C 0,0 km/h (0 Bft)
05.12.2015 21:25 0,1 C -0,2 C 91 % 1030,9 hPa 0,0 mm 0,0 km/h (0 Bft) N-NO 22 -1,2 C 0,0 km/h (0 Bft)
05.12.2015 21:30 0,2 C -0,2 C 91 % 1030,9 hPa 0,0 mm 0,0 km/h (0 Bft) NW 315 -1,1 C 0,0 km/h (0 Bft)
05.12.2015 21:35 0,2 C -0,1 C 91 % 1030,9 hPa 0,0 mm 0,0 km/h (0 Bft) NW 315 -1,1 C 0,0 km/h (0 Bft)
05.12.2015 21:40 -0,1 C -0,3 C 91 % 1030,9 hPa 0,0 mm 0,0 km/h (0 Bft) NW 315 -1,4 C 0,0 km/h (0 Bft)
05.12.2015 21:45 -0,4 C -0,6 C 91 % 1030,9 hPa 0,0 mm 0,0 km/h (0 Bft) NW 315 -1,7 C 0,0 km/h (0 Bft)
05.12.2015 21:50 -0,4 C -0,7 C 91 % 1030,9 hPa 0,0 mm 0,0 km/h (0 Bft) NW 315 -1,7 C 0,0 km/h (0 Bft)
05.12.2015 21:55 -0,2 C -0,6 C 91 % 1030,7 hPa 0,0 mm 0,0 km/h (0 Bft) NW 315 -1,5 C 0,0 km/h (0 Bft)
05.12.2015 22:00 -0,4 C -0,8 C 91 % 1030,7 hPa 0,0 mm 0,0 km/h (0 Bft) NW 315 -1,7 C 0,0 km/h (0 Bft)
05.12.2015 22:05 -0,3 C -0,7 C 91 % 1030,7 hPa 0,0 mm 0,0 km/h (0 Bft) NW 315 -1,6 C 0,0 km/h (0 Bft)
05.12.2015 22:10 -0,7 C -1,0 C 91 % 1030,7 hPa 0,0 mm 0,0 km/h (0 Bft) NW 315 -2,0 C 0,0 km/h (0 Bft)
05.12.2015 22:15 -0,5 C -0,9 C 91 % 1030,4 hPa 0,0 mm 0,0 km/h (0 Bft) NW 315 -1,8 C 0,0 km/h (0 Bft)
05.12.2015 22:20 -0,3 C -0,7 C 91 % 1030,4 hPa 0,0 mm 0,0 km/h (0 Bft) N-NW 337 -1,6 C 0,0 km/h (0 Bft)
05.12.2015 22:25 0,1 C -0,4 C 92 % 1030,4 hPa 0,0 mm 0,0 km/h (0 Bft) NO 45 -1,0 C 0,0 km/h (0 Bft)
05.12.2015 22:30 -0,2 C -0,5 C 92 % 1030,4 hPa 0,0 mm 0,0 km/h (0 Bft) NO 45 -1,3 C 0,0 km/h (0 Bft)
05.12.2015 22:35 -0,3 C -0,6 C 92 % 1030,3 hPa 0,0 mm 0,0 km/h (0 Bft) N-NO 22 -1,4 C 0,0 km/h (0 Bft)
05.12.2015 22:40 -0,5 C -0,8 C 91 % 1030,3 hPa 0,0 mm 0,0 km/h (0 Bft) N-NO 22 -1,8 C 0,0 km/h (0 Bft)
05.12.2015 22:45 -0,7 C -0,9 C 91 % 1030,3 hPa 0,0 mm 0,0 km/h (0 Bft) N-NO 22 -2,0 C 0,0 km/h (0 Bft)
05.12.2015 22:50 0,0 C -0,5 C 92 % 1030,3 hPa 0,0 mm 0,0 km/h (0 Bft) O-NO 67 -1,1 C 0,0 km/h (0 Bft)
05.12.2015 22:55 -0,3 C -0,6 C 92 % 1030,3 hPa 0,0 mm 0,0 km/h (0 Bft) NO 45 -1,4 C 0,0 km/h (0 Bft)
05.12.2015 23:00 -0,1 C -0,5 C 92 % 1030,3 hPa 0,0 mm 0,0 km/h (0 Bft) NO 45 -1,2 C 0,0 km/h (0 Bft)
05.12.2015 23:05 0,0 C -0,5 C 92 % 1030,3 hPa 0,0 mm 0,0 km/h (0 Bft) NO 45 -1,1 C 0,0 km/h (0 Bft)
05.12.2015 23:10 -0,5 C -0,9 C 92 % 1030,3 hPa 0,0 mm 0,0 km/h (0 Bft) NO 45 -1,6 C 0,0 km/h (0 Bft)
05.12.2015 23:15 -0,3 C -0,7 C 92 % 1030,2 hPa 0,0 mm 0,0 km/h (0 Bft) O-NO 67 -1,4 C 0,0 km/h (0 Bft)
05.12.2015 23:20 -0,4 C -0,8 C 92 % 1030,2 hPa 0,0 mm 0,0 km/h (0 Bft) N-NO 22 -1,5 C 0,0 km/h (0 Bft)
05.12.2015 23:25 -0,5 C -0,8 C 92 % 1030,2 hPa 0,0 mm 0,0 km/h (0 Bft) N-NO 22 -1,6 C 0,0 km/h (0 Bft)
05.12.2015 23:30 -0,2 C -0,6 C 92 % 1030,2 hPa 0,0 mm 0,0 km/h (0 Bft) N 360 -1,3 C 0,0 km/h (0 Bft)
05.12.2015 23:35 -0,4 C -0,7 C 92 % 1030,3 hPa 0,0 mm 0,0 km/h (0 Bft) N-NW 337 -1,5 C 0,0 km/h (0 Bft)
05.12.2015 23:40 -0,7 C -1,0 C 92 % 1030,3 hPa 0,0 mm 0,0 km/h (0 Bft) N-NW 337 -1,8 C 0,0 km/h (0 Bft)
05.12.2015 23:45 -0,8 C -1,0 C 92 % 1030,3 hPa 0,0 mm 0,0 km/h (0 Bft) N-NW 337 -1,9 C 0,0 km/h (0 Bft)
05.12.2015 23:50 -0,4 C -0,8 C 92 % 1030,3 hPa 0,0 mm 0,0 km/h (0 Bft) NO 45 -1,5 C 0,0 km/h (0 Bft)
05.12.2015 23:55 -0,8 C -1,1 C 92 % 1030,2 hPa 0,0 mm 0,0 km/h (0 Bft) N-NW 337 -1,9 C 0,0 km/h (0 Bft)
05.12.2015 23:57 -0,8 C -1,1 C 92 % 1030,2 hPa 0,0 mm 0,0 km/h (0 Bft) N-NW 337 -1,9 C 0,0 km/h (0 Bft)
_ Min-Zeit 23:57 23:57 15:55 23:57 - 23:57 - - 22:45 23:57
Minimum _ -0,8 C -1,1 C 77 % 1030,2 hPa - 0,0 km/h (0 Bft) - - -2,0 C 0,0 km/h (0 Bft)
_ Max-Zeit 13:50 14:10 11:35 00:06 05:10 11:10 - - 13:45 11:10
Maximum _ 7,9 C 15,2 C 95 % 1034,8 hPa 0,7 mm 5,4 km/h
W-SW (1 Bft)
- - 6,2 C 10,4 km/h
W-SW (2 Bft)
Durchschnitt _ 2,7 C 2,9 C 90 % 1032,4 hPa #0,7 mm 0,4 km/h (0 Bft) S-SO - 1,3 C 0,6 km/h (0 Bft)